Home > Weather > Freiberg > Past weeks

Flag for Germany Past Weather in Freiberg, Saxony, Germany — Yesterday and Last 2 Weeks

Now
61 °F

Clear.


Feels Like: 61 °F
Forecast: 54 / 67 °F
Wind: 2 mph from South

Location: Dresden-Klotzsche

Current Time: Jul 31, 2016 at 5:40:13 AM

Latest Report: Jul 31, 2016 at 5:20 AM


Visibility: 10 mi

Pressure: 29.89 "Hg

Humidity: 94%

Dew Point: 59 °F

Location of FreibergLocation

Past Weather in Freiberg — Graph

°F

Freiberg Temperature Yesterday

Maximum temperature yesterday: 77 °F (at 1:20 PM)
Minimum temperature yesterday: 63 °F (at 5:50 AM)
Average temperature yesterday: 69 °F

High & Low Weather Summary for the Past Weeks

 TemperatureHumidityPressure
High82 °F (Jul 22, 4:50 PM)100% (Jul 20, 4:50 AM)30.27 "Hg (Jul 20, 4:50 AM)
Low52 °F (Jul 16, 4:20 AM)29% (Jul 16, 5:50 PM)29.89 "Hg (Jul 29, 4:20 PM)
Average69 °F73%30.05 "Hg
* Reported Jul 16 4:20 AM — Jul 31 4:20 AM, Freiberg, Weather by CustomWeather, © 2016

Note: Actual official high and low records may vary slightly from our data, if they occured in-between our weather recording intervals... More about our weather records

Advertising

Freiberg Weather History for the Previous 24 Hours

Scroll right to see more
 ConditionsComfort  
Time TempWeatherWind HumidityBarometerVisibility
4:20 AM
Sun, Jul 31
61 °FClear.1 mph100%29.89 "Hg10 mi
3:50 AM63 °FClear.3 mph94%29.89 "Hg10 mi
3:20 AM63 °FClear.2 mph94%29.89 "Hg10 mi
2:50 AM63 °FClear.2 mph94%29.92 "Hg10 mi
2:20 AM63 °FClear.1 mph94%29.92 "Hg10 mi
1:50 AM64 °FPassing clouds.3 mph88%29.92 "HgN/A
1:20 AM64 °FClear.3 mph88%29.92 "Hg10 mi
12:50 AM64 °FClear.1 mph88%29.92 "Hg10 mi
12:20 AM66 °FClear.1 mph83%29.92 "Hg10 mi
11:50 PM
Sat, Jul 30
68 °FClear.2 mph78%29.92 "Hg10 mi
11:20 PM68 °FPassing clouds.3 mph83%29.92 "HgN/A
10:50 PM70 °FPartly cloudy.5 mph78%29.92 "HgN/A
10:20 PM70 °FClear.2 mph78%29.92 "Hg10 mi
9:50 PM70 °FSunny.2 mph73%29.92 "Hg10 mi
9:20 PM72 °FSunny.2 mph69%29.92 "Hg10 mi
8:50 PM70 °FSunny.2 mph73%29.92 "Hg10 mi
8:20 PM72 °FSunny.1 mph73%29.89 "Hg10 mi
7:50 PM73 °FSunny.2 mph65%29.89 "Hg10 mi
7:20 PM75 °FSunny.1 mph65%29.89 "Hg10 mi
6:50 PM73 °FPassing clouds.1 mph65%29.89 "HgN/A
6:20 PM73 °FPassing clouds.3 mph74%29.92 "HgN/A
5:50 PM73 °FPassing clouds.2 mph69%29.92 "HgN/A
5:20 PM72 °FScattered clouds.3 mph78%29.92 "HgN/A
4:50 PM70 °FScattered clouds.6 mph78%29.92 "HgN/A
4:20 PM70 °FScattered showers. Scattered clouds.5 mph78%29.89 "HgN/A
3:50 PM66 °FThundershowers. Partly sunny.12 mph83%29.92 "HgN/A
3:20 PM75 °FScattered clouds.6 mph65%29.89 "HgN/A
2:50 PM72 °FScattered showers. Broken clouds.9 mph69%29.89 "HgN/A
2:20 PM77 °FScattered showers. Scattered clouds.9 mph47%29.89 "HgN/A
1:50 PM77 °FScattered clouds.13 mph51%29.89 "HgN/A
1:20 PM77 °FPartly sunny.7 mph54%29.89 "HgN/A
12:50 PM73 °FBroken clouds.2 mph57%29.92 "HgN/A
12:20 PM73 °FBroken clouds.5 mph57%29.92 "HgN/A
11:50 AM75 °FScattered clouds.7 mph57%29.92 "HgN/A
11:20 AM73 °FScattered clouds.9 mph57%29.92 "HgN/A
10:50 AM73 °FBroken clouds.9 mph61%29.92 "HgN/A
10:20 AM73 °FScattered clouds.7 mph57%29.92 "HgN/A
9:50 AM72 °FPassing clouds.8 mph69%29.92 "HgN/A
9:20 AM70 °FPassing clouds.6 mph69%29.95 "HgN/A
8:50 AM68 °FPassing clouds.5 mph73%29.95 "HgN/A
8:20 AM66 °FPassing clouds.5 mph73%29.95 "HgN/A
7:50 AM66 °FSunny.5 mph78%29.95 "Hg10 mi
7:20 AM64 °FSunny.6 mph78%29.95 "Hg10 mi
6:50 AM63 °FSunny.6 mph83%29.95 "Hg10 mi
6:20 AM63 °FClear.7 mph83%29.92 "Hg10 mi
5:50 AM63 °FClear.5 mph83%29.92 "Hg10 mi
5:20 AM64 °FPassing clouds.3 mph83%29.92 "HgN/A
Weather by CustomWeather, © 2016

See weather overviewHow to use our weather pages